Voltar ao catálogo

STARLINK-11654

AtivoComunicaçõesVLEO
NORAD 63265·PAYLOAD·🇺🇸 United States

Lançado Mar 15, 2025 de Cape Canaveral Space Force Station

Loading…

Próximas Passagens (próximas 24 horas)

TLE

AtualizadoSource: CelesTrak SupGP

Época: Sep 15, 2026, 02:18 UTC

1 63265C 25053A   26258.09631944 -.00082438  00000+0 -63980-3 0  2589
2 63265  43.0009  50.5071 0001679 268.9021 272.8098 15.70897431    11

Acompanhe STARLINK-11654 em tempo real com AllMySat

Download on the App Store